LB9CG Weather Reports


Display with metric or nautical units.
time (UTC)temp
F
wind
direction
speed
MPH
gust
MPH
rain 1hr
in
rain 24hr
in
rain mn
in
humidity
%
barometer
mb
20260506034016 35 270 2.0 9.0 0.00 0.00 0.00 96 1006.1
20260506033016 34 248 1.0 3.0 0.00 0.00 0.00 95 1005.6
20260506032016 34 0.0 2.0 0.00 0.00 0.00 95 1005.8
20260506031016 34 180 1.0 3.0 0.00 0.00 0.00 95 1005.8
20260506030016 34 0.0 2.0 0.00 0.00 0.00 95 1006.0
20260506025017 34 293 2.0 8.0 0.00 0.00 0.00 94 1006.2
20260506024016 34 293 1.0 10.0 0.00 0.00 0.00 94 1006.2
20260506023016 34 293 2.0 6.0 0.00 0.00 0.00 93 1006.1
20260506022016 35 45 1.0 2.0 0.00 0.00 0.00 94 1005.8
20260506021016 35 90 1.0 6.0 0.00 0.00 0.00 93 1005.5
20260506020016 36 293 4.0 11.0 0.00 0.00 0.00 93 1005.9
20260506015016 36 248 2.0 7.0 0.00 0.00 0.00 94 1005.6
20260506014036 35 203 2.0 6.0 0.00 0.00 0.00 95 1005.7
20260506013016 35 225 1.0 4.0 0.00 0.00 0.00 94 1005.7
20260506012016 35 225 2.0 6.0 0.00 0.00 0.00 94 1005.5
20260506011016 35 225 3.0 7.0 0.00 0.00 0.00 94 1005.4
20260506010016 36 248 2.0 8.0 0.00 0.00 0.00 94 1005.3
20260506005016 36 248 1.0 6.0 0.00 0.00 0.00 94 1005.4
20260506004016 36 225 1.0 6.0 0.00 0.00 0.00 94 1005.2
20260506003036 36 225 2.0 9.0 0.00 0.00 0.00 94 1005.2
20260506002016 36 293 3.0 9.0 0.00 0.00 0.00 93 1005.2
20260506001016 36 293 5.0 12.0 0.00 0.00 0.00 93 1005.2
20260506000016 37 293 4.0 11.0 0.00 0.00 0.00 93 1005.1
20260505235016 37 293 5.0 9.0 0.00 0.00 0.00 92 1005.0
20260505234016 37 293 3.0 12.0 0.00 0.00 0.00 93 1005.0
20260505233016 37 225 2.0 8.0 0.00 0.00 0.00 93 1005.0
20260505232016 36 293 3.0 8.0 0.00 0.00 0.00 94 1005.0
20260505231036 36 248 2.0 8.0 0.00 0.00 0.00 94 1005.1
20260505230016 36 225 3.0 8.0 0.00 0.00 0.00 95 1005.1
20260505225016 36 270 3.0 12.0 0.00 0.00 0.00 95 1005.2
20260505224016 36 270 2.0 8.0 0.00 0.00 0.00 96 1005.1
20260505223016 35 225 2.0 5.0 0.00 0.00 0.00 95 1005.0
20260505222035 34 180 3.0 8.0 0.00 0.00 0.00 94 1005.0
20260505221036 35 225 3.0 13.0 0.00 0.00 0.00 94 1004.9
20260505220016 35 270 4.0 15.0 0.00 0.00 0.00 94 1004.9
20260505215036 35 203 2.0 9.0 0.00 0.00 0.00 94 1004.8
20260505214036 34 225 3.0 9.0 0.00 0.00 0.00 94 1004.8
20260505213016 34 180 3.0 8.0 0.00 0.00 0.00 93 1004.9
20260505212016 35 225 2.0 9.0 0.00 0.00 0.00 93 1004.7
20260505211016 35 203 2.0 8.0 0.00 0.00 0.00 92 1004.8
20260505210016 35 158 3.0 8.0 0.00 0.00 0.00 91 1004.9
20260505205016 36 248 4.0 12.0 0.00 0.00 0.00 90 1004.8
20260505204036 36 293 4.0 13.0 0.00 0.00 0.00 90 1004.7
20260505203016 36 158 1.0 5.0 0.00 0.00 0.00 91 1004.8
20260505202016 36 225 3.0 11.0 0.00 0.00 0.00 91 1004.6
20260505201016 36 225 2.0 7.0 0.00 0.00 0.00 91 1004.6
20260505200036 36 270 1.0 6.0 0.00 0.00 0.00 92 1004.7
20260505195016 36 225 2.0 5.0 0.00 0.00 0.00 92 1004.6
20260505194016 36 293 2.0 6.0 0.00 0.00 0.00 92 1004.6
20260505193016 35 293 3.0 9.0 0.00 0.00 0.00 91 1004.6
20260505192016 36 293 5.0 15.0 0.00 0.00 0.00 89 1004.6
20260505191016 36 0.0 6.0 0.00 0.00 0.00 88 1004.5
20260505190016 36 293 2.0 6.0 0.00 0.00 0.00 89 1004.4
20260505185015 36 270 4.0 10.0 0.00 0.00 0.00 89 1004.4
20260505184016 36 270 1.0 5.0 0.00 0.00 0.00 89 1004.4
20260505183036 36 270 4.0 12.0 0.00 0.00 0.00 87 1004.7
20260505182016 37 270 5.0 14.0 0.00 0.00 0.00 86 1004.5
20260505181056 37 270 1.0 5.0 0.00 0.00 0.00 88 1004.3
20260505180015 36 270 1.0 3.0 0.00 0.00 0.00 89 1004.2
20260505175016 36 0.0 2.0 0.00 0.00 0.00 88 1004.1
20260505174016 36 158 2.0 7.0 0.00 0.00 0.00 86 1004.3
20260505173015 36 248 2.0 7.0 0.00 0.00 0.00 86 1004.7
20260505172016 36 225 2.0 8.0 0.00 0.00 0.00 83 1004.6
20260505171016 37 248 3.0 8.0 0.00 0.00 0.00 81 1004.7
20260505170015 37 248 5.0 14.0 0.00 0.00 0.00 82 1004.5
20260505165016 39 270 4.0 11.0 0.00 0.00 0.00 80 1004.6
20260505164015 40 293 4.0 16.0 0.00 0.00 0.00 76 1004.4
20260505163015 40 158 1.0 4.0 0.00 0.00 0.00 74 1004.2
20260505162015 41 270 3.0 11.0 0.00 0.00 0.00 73 1004.3
20260505161016 42 293 3.0 10.0 0.00 0.00 0.00 71 1004.2
20260505153015 41 248 3.0 8.0 0.00 0.00 0.00 75 1004.4
20260505152015 43 225 3.0 10.0 0.00 0.00 0.00 72 1004.4
20260505151015 43 225 4.0 10.0 0.00 0.00 0.00 72 1004.3
20260505125017 36 158 3.0 7.0 0.00 0.00 0.00 83 1004.1
20260505124017 38 225 4.0 11.0 0.00 0.00 0.00 78 1004.2
20260505123037 42 293 4.0 11.0 0.00 0.00 0.00 75 1003.9
20260505122017 42 248 2.0 7.0 0.00 0.00 0.00 74 1003.7
20260505121017 41 293 5.0 12.0 0.00 0.00 0.00 72 1003.6
20260505120017 42 293 4.0 11.0 0.00 0.00 0.00 73 1003.4
20260505115017 42 293 4.0 9.0 0.00 0.00 0.00 74 1003.5
20260505114017 41 293 3.0 7.0 0.00 0.00 0.00 78 1003.5
20260505112017 37 225 2.0 8.0 0.00 0.00 0.00 85 1003.4
20260505111017 38 293 4.0 10.0 0.00 0.00 0.00 82 1003.4
20260505102016 40 293 2.0 7.0 0.00 0.00 0.00 78 1003.0
20260505101016 41 293 2.0 6.0 0.00 0.00 0.00 77 1003.0
20260505100037 41 293 3.0 9.0 0.00 0.00 0.00 78 1002.8
20260505095017 40 0 3.0 6.0 0.00 0.00 0.00 83 1002.7
20260505094016 40 293 2.0 11.0 0.00 0.00 0.00 79 1002.6
20260505093036 42 225 2.0 7.0 0.00 0.00 0.00 81 1002.5
20260505092017 41 293 3.0 8.0 0.00 0.00 0.00 81 1002.6
20260505091016 41 270 2.0 6.0 0.00 0.00 0.00 81 1002.7
20260505090016 39 0.0 2.0 0.00 0.00 0.00 86 1002.7
20260505085016 38 225 4.0 11.0 0.00 0.00 0.00 85 1002.8
20260505084016 38 248 3.0 10.0 0.00 0.00 0.00 87 1002.8
20260505083017 39 293 2.0 8.0 0.00 0.00 0.00 87 1002.6
20260505082016 38 225 1.0 2.0 0.00 0.00 0.00 88 1002.4
20260505081016 39 248 1.0 4.0 0.00 0.00 0.00 86 1002.4
20260505080016 40 225 1.0 4.0 0.00 0.00 0.00 87 1002.2
20260505075016 39 180 2.0 6.0 0.00 0.00 0.00 86 1002.3
20260505074016 39 0.0 3.0 0.00 0.00 0.00 89 1002.2
20260505073036 37 225 2.0 4.0 0.00 0.00 0.00 89 1002.1
20260505072016 38 135 2.0 6.0 0.00 0.00 0.00 90 1002.1
20260505071016 35 158 1.0 3.0 0.00 0.00 0.00 93 1002.1
20260505070016 34 0.0 2.0 0.00 0.00 0.00 92 1002.1
20260505065016 34 293 2.0 6.0 0.00 0.00 0.00 91 1002.2
20260505064016 35 293 3.0 11.0 0.00 0.00 0.00 89 1002.1
20260505063016 38 225 2.0 7.0 0.00 0.00 0.00 88 1001.9
20260505062016 37 270 2.0 9.0 0.00 0.00 0.00 88 1001.8
20260505061036 39 248 1.0 4.0 0.00 0.00 0.00 90 1001.7
20260505060016 39 135 1.0 4.0 0.00 0.00 0.00 92 1001.6
20260505055016 36 225 1.0 4.0 0.00 0.00 0.00 94 1001.6
20260505054016 34 158 1.0 4.0 0.00 0.00 0.00 95 1001.5
20260505053016 34 248 2.0 5.0 0.00 0.00 0.00 96 1001.7
20260505052016 33 225 1.0 3.0 0.00 0.00 0.00 96 1001.7
20260505051016 33 0.0 0.0 0.00 0.00 0.00 96 1001.6
20260505041016 33 45 1.0 4.0 0.00 0.00 0.00 96 1001.6
20260505040016 33 135 1.0 4.0 0.00 0.00 0.00 96 1001.5
20260505035016 33 135 1.0 5.0 0.00 0.00 0.00 96 1001.3